This is the latest recevied weather packets stored in our database for station/object LU3HGB-WX. If no packets are shown the sender has not sent any weather packets the latest 10 day(s).
| Time | Temp. | Humidity | Pressure | Rain* | Wind** | Luminosity | Snow |
|---|---|---|---|---|---|---|---|
| 1788187360 | 20° C | 51% | 1015 hPa | 0 mm | - | 799 W/m² | - |
| 1788187062 | 20° C | 51% | 1015 hPa | 0 mm | - | 787 W/m² | - |
| 1788186760 | 19.44° C | 52% | 1015 hPa | 0 mm | - | 767 W/m² | - |
| 1788186459 | 19.44° C | 54% | 1015 hPa | 0 mm | - | 745 W/m² | - |
| 1788186160 | 18.89° C | 53% | 1015 hPa | 0 mm | - | 723 W/m² | - |
| 1788185864 | 19.44° C | 52% | 1015 hPa | 0 mm | - | 709 W/m² | - |
| 1788185560 | 18.89° C | 53% | 1015 hPa | 0 mm | - | 695 W/m² | - |
| 1788185260 | 18.33° C | 55% | 1015 hPa | 0 mm | - | 651 W/m² | - |
| 1788184960 | 18.33° C | 55% | 1015 hPa | 0 mm | - | 662 W/m² | - |
| 1788184660 | 17.78° C | 55% | 1015 hPa | 0 mm | - | 649 W/m² | - |
| 1788184369 | 17.78° C | 56% | 1015 hPa | 0 mm | - | 626 W/m² | - |
| 1788184059 | 17.78° C | 56% | 1015 hPa | 0 mm | - | 615 W/m² | - |
| 1788183759 | 17.22° C | 56% | 1015 hPa | 0 mm | - | 600 W/m² | - |
| 1788183460 | 17.22° C | 56% | 1015 hPa | 0 mm | - | 583 W/m² | - |
| 1788183159 | 16.67° C | 56% | 1015 hPa | 0 mm | - | 565 W/m² | - |
| 1788182864 | 16.67° C | 56% | 1015 hPa | 0 mm | - | 541 W/m² | - |
| 1788182560 | 15.56° C | 59% | 1015 hPa | 0 mm | - | 520 W/m² | - |
| 1788182260 | 15.56° C | 57% | 1014 hPa | 0 mm | - | 504 W/m² | - |
| 1788181961 | 15.56° C | 60% | 1014 hPa | 0 mm | - | 484 W/m² | - |
| 1788181668 | 15.56° C | 58% | 1014 hPa | 0 mm | - | 463 W/m² | - |
| 1788181359 | 15.56° C | 56% | 1014 hPa | 0 mm | - | 442 W/m² | - |
| 1788181060 | 14.44° C | 57% | 1014 hPa | 0 mm | - | 422 W/m² | - |
| 1788180760 | 13.33° C | 63% | 1014 hPa | 0 mm | - | 399 W/m² | - |
| 1788180459 | 12.22° C | 66% | 1014 hPa | 0 mm | - | 384 W/m² | - |
| 1788180160 | 11.67° C | 67% | 1014 hPa | 0 mm | - | 362 W/m² | - |
* Rain latest hour (hover to see other rain measurements)
** Current wind speed in m/s (hover to see current wind gust speed)